Voltar ao catálogo

STARLINK-5291

AtivoComunicaçõesVLEO
NORAD 55273·PAYLOAD·🇺🇸 United States

Lançado Jan 19, 2023 de Vandenberg Space Force Base

Loading…

Próximas Passagens (próximas 24 horas)

TLE

AtualizadoSource: CelesTrak SupGP

Época: Sep 15, 2026, 02:11 UTC

1 55273C 23010E   26258.09145833  .00000962  00000+0  80569-4 0  2580
2 55273  69.9995 286.7657 0003382 268.1159 323.1184 14.98339928    19

Acompanhe STARLINK-5291 em tempo real com AllMySat

Download on the App Store